This is the latest recevied weather packets stored in our database for station/object N9ALD. If no packets are shown the sender has not sent any weather packets the latest 10 day(s).
| Time | Temp. | Humidity | Pressure | Rain* | Wind** | Luminosity | Snow |
|---|---|---|---|---|---|---|---|
| 1777411202 | 18.33° C | 68% | 1010.2 hPa | 0 mm | - | 266 W/m² | - |
| 1777410897 | 18.33° C | 70% | 1010.1 hPa | 0 mm | - | 271 W/m² | - |
| 1777410597 | 18.33° C | 68% | 1010 hPa | 0 mm | - | 312 W/m² | - |
| 1777410297 | 18.89° C | 68% | 1010.4 hPa | 0 mm | - | 330 W/m² | - |
| 1777409992 | 18.33° C | 71% | 1010.6 hPa | 0 mm | - | 410 W/m² | - |
| 1777409687 | 18.89° C | 67% | 1010.7 hPa | 0 mm | - | 349 W/m² | - |
| 1777409383 | 18.89° C | 67% | 1010.8 hPa | 0 mm | - | 470 W/m² | - |
| 1777409078 | 18.89° C | 68% | 1011.1 hPa | 0 mm | - | 518 W/m² | - |
| 1777408775 | 18.89° C | 69% | 1011.1 hPa | 0 mm | - | 566 W/m² | - |
| 1777408471 | 18.89° C | 69% | 1011.4 hPa | 0 mm | - | 555 W/m² | - |
| 1777408166 | 18.89° C | 70% | 1011.4 hPa | 0 mm | - | 562 W/m² | - |
| 1777407862 | 18.89° C | 71% | 1011.4 hPa | 0 mm | - | 456 W/m² | - |
| 1777407560 | 18.89° C | 66% | 1011.4 hPa | 0 mm | - | 614 W/m² | - |
| 1777407259 | 18.89° C | 66% | 1011.6 hPa | 0 mm | - | 607 W/m² | - |
| 1777406959 | 18.89° C | 66% | 1011.7 hPa | 0 mm | - | 645 W/m² | - |
| 1777406653 | 18.89° C | 66% | 1011.8 hPa | 0 mm | - | 521 W/m² | - |
| 1777406350 | 19.44° C | 66% | 1011.7 hPa | 0 mm | - | 510 W/m² | - |
| 1777406049 | 18.89° C | 68% | 1011.7 hPa | 0 mm | - | 612 W/m² | - |
| 1777405746 | 18.33° C | 67% | 1011.9 hPa | 0 mm | - | 695 W/m² | - |
| 1777405442 | 18.33° C | 68% | 1012 hPa | 0 mm | - | 739 W/m² | - |
| 1777405140 | 18.33° C | 68% | 1011.7 hPa | 0 mm | - | 794 W/m² | - |
| 1777404838 | 18.89° C | 65% | 1011.9 hPa | 0 mm | - | 215 W/m² | - |
| 1777404535 | 18.89° C | 69% | 1012 hPa | 0 mm | - | 702 W/m² | - |
| 1777404230 | 18.33° C | 69% | 1012 hPa | 0 mm | - | 738 W/m² | - |
| 1777403927 | 18.33° C | 68% | 1012 hPa | 0 mm | - | 772 W/m² | - |
* Rain latest hour (hover to see other rain measurements)
** Current wind speed in m/s (hover to see current wind gust speed)